Temperature
1 2 2 2 2 3 3 3 3 3 3 3 3 3 3 3 3 3 3 3 3 3 3 3 3 3 3 3 4 4 4 4 4 5 5 5 5 6 6 6 6 7 7
1 1 1 2 2 2 2 2 2 2 2 2 2 2 2 2 2 2 2 2 2 2 2 2 2 2 3 3 3 3 3 3 3 3 3 4 5 5 5 5 6 6 6
1 1 1 1 1 1 1 1 1 1 2 2 1 2 2 2 2 2 2 2 1 1 1 1 2 2 2 2 2 2 2 2 2 2 2 3 4 4 4 4 5 5 5
1 0 0 1 1 1 1 1 1 1 1 1 1 1 1 1 1 1 1 1 1 1 1 1 1 1 1 1 1 1 1 1 1 2 2 2 2 2 3 3 4 4 4
0 0 0 0 0 0 0 0 0 0 0 0 0 -0 -0 -0 -0 -0 -0 0 0 0 0 0 0 0 0 0 0 0 0 0 0 1 1 1 2 2 2 2 3 3 4
0 0 0 0 -0 -0 -0 -0 -0 -0 -0 -1 -1 -1 -1 -1 -1 -1 -1 -1 -1 -1 -1 -1 -1 -1 -1 -1 -0 -0 -0 -0 -0 -0 0 0 1 1 1 2 2 2 3
0 -0 -0 -0 -0 -1 -1 -1 -1 -1 -1 -1 -1 -1 -1 -2 -2 -2 -2 -2 -2 -1 -1 -1 -1 -1 -1 -1 -1 -1 -1 -1 -1 -1 -0 -0 -0 0 1 1 1 1 2
-0 -0 -1 -1 -1 -1 -1 -1 -1 -2 -2 -2 -2 -2 -2 -2 -2 -2 -2 -2 -2 -2 -2 -2 -2 -2 -2 -2 -2 -2 -2 -2 -2 -1 -1 -1 -1 -1 -0 0 0 0 1
-1 -1 -1 -1 -1 -2 -2 -2 -2 -2 -2 -2 -2 -2 -3 -3 -3 -3 -3 -3 -3 -3 -3 -3 -3 -3 -3 -3 -3 -3 -2 -2 -2 -2 -2 -2 -1 -1 -1 -1 -0 -0 0
-1 -1 -2 -2 -2 -2 -2 -2 -3 -3 -3 -3 -3 -3 -3 -3 -3 -3 -3 -3 -3 -3 -3 -3 -3 -3 -3 -3 -3 -3 -3 -3 -3 -3 -2 -2 -2 -2 -2 -1 -1 -1 -1
-2 -2 -2 -2 -2 -3 -3 -3 -3 -3 -3 -3 -3 -4 -4 -4 -4 -4 -4 -4 -4 -4 -4 -4 -4 -4 -4 -4 -4 -4 -4 -4 -3 -3 -3 -3 -3 -2 -2 -2 -2 -1 -1
-2 -2 -3 -3 -3 -3 -3 -3 -4 -4 -4 -4 -4 -4 -4 -4 -5 -5 -5 -5 -5 -5 -5 -5 -5 -5 -5 -4 -4 -4 -4 -4 -4 -4 -4 -3 -3 -3 -3 -3 -2 -2 -2
-3 -3 -3 -4 -4 -4 -4 -4 -4 -4 -4 -4 -5 -5 -5 -5 -5 -5 -5 -5 -5 -5 -5 -5 -5 -5 -5 -5 -5 -5 -5 -5 -4 -4 -4 -4 -4 -4 -3 -3 -3 -3 -2
-3 -4 -4 -4 -4 -4 -5 -5 -5 -5 -5 -5 -5 -5 -5 -6 -6 -6 -6 -6 -6 -6 -6 -6 -6 -6 -6 -6 -5 -6 -6 -5 -5 -5 -5 -4 -4 -4 -4 -4 -3 -3 -3
-4 -4 -4 -5 -5 -5 -5 -5 -5 -5 -5 -6 -6 -6 -6 -6 -6 -6 -6 -6 -6 -6 -6 -6 -6 -6 -6 -6 -6 -6 -6 -6 -6 -5 -5 -5 -5 -4 -4 -4 -4 -4 -3
-4 -5 -5 -5 -5 -6 -6 -6 -6 -6 -6 -6 -6 -7 -7 -7 -7 -7 -7 -7 -7 -7 -7 -7 -7 -7 -7 -7 -7 -6 -6 -6 -6 -6 -5 -5 -5 -5 -4 -4 -4 -4 -4
-5 -5 -5 -6 -6 -6 -6 -6 -6 -7 -7 -7 -7 -7 -7 -7 -8 -8 -8 -8 -8 -7 -7 -7 -7 -7 -7 -7 -7 -7 -7 -6 -6 -6 -6 -6 -5 -5 -5 -5 -5 -4 -4
-5 -5 -6 -6 -6 -7 -7 -7 -7 -7 -7 -7 -7 -8 -8 -8 -8 -8 -8 -8 -8 -8 -8 -8 -8 -8 -8 -8 -7 -7 -7 -7 -7 -7 -6 -6 -6 -6 -6 -6 -5 -5 -4
-6 -6 -6 -6 -7 -7 -7 -7 -7 -8 -8 -8 -8 -8 -8 -8 -9 -9 -9 -9 -9 -9 -8 -9 -9 -8 -8 -8 -8 -8 -7 -7 -7 -7 -7 -7 -6 -6 -6 -6 -6 -5 -5
-6 -6 -6 -7 -7 -7 -8 -8 -8 -8 -8 -8 -9 -9 -9 -9 -9 -9 -9 -9 -9 -9 -9 -9 -9 -9 -9 -8 -8 -8 -8 -8 -7 -7 -7 -7 -7 -6 -6 -6 -6 -6 -5
-7 -7 -7 -7 -7 -8 -8 -8 -8 -9 -9 -9 -9 -9 -9 -9 -9 -9 -9 -9 -9 -9 -9 -9 -9 -9 -9 -9 -9 -9 -9 -8 -8 -8 -7 -7 -7 -7 -6 -6 -6 -6 -5
-7 -7 -7 -8 -8 -8 -9 -9 -9 -9 -9 -9 -9 -9 -9 -9 -10 -10 -10 -10 -10 -10 -10 -10 -10 -10 -10 -10 -9 -9 -9 -9 -8 -8 -8 -8 -7 -7 -7 -6 -6 -6 -6
-8 -8 -8 -8 -8 -9 -9 -9 -9 -9 -9 -9 -9 -9 -10 -10 -10 -10 -10 -10 -10 -10 -10 -11 -10 -10 -10 -10 -10 -10 -9 -9 -9 -9 -8 -8 -7 -7 -7 -7 -7 -7 -7
-8 -8 -9 -9 -9 -9 -9 -10 -10 -10 -10 -10 -10 -10 -10 -10 -10 -10 -10 -11 -11 -11 -11 -11 -11 -11 -11 -10 -10 -10 -10 -9 -9 -9 -9 -8 -8 -8 -8 -8 -8 -7 -7
-9 -9 -9 -9 -9 -9 -10 -10 -10 -10 -10 -10 -10 -10 -10 -11 -11 -11 -11 -11 -11 -11 -11 -11 -11 -11 -11 -11 -10 -10 -10 -10 -10 -9 -9 -9 -9 -9 -9 -8 -8 -8 -8
-9 -9 -9 -10 -10 -10 -10 -10 -10 -10 -10 -10 -11 -11 -11 -11 -11 -11 -11 -11 -11 -11 -11 -11 -11 -11 -11 -11 -10 -10 -10 -10 -10 -10 -10 -10 -10 -9 -9 -9 -9 -9 -9
Wind_Speed
3 2 2 1 1 1 2 3 4 4 5 4 4 3 4 4 5 6 8 8 9 9 8 6 5 5 4 5 5 4 4 4 3 3 4 4 5 4 4 4 3 3 3
3 3 2 2 1 1 1 2 3 3 4 4 4 3 3 3 4 5 6 8 8 8 7 7 5 5 4 5 5 4 3 3 3 3 3 3 4 3 4 4 4 4 3
5 4 3 3 2 1 0 1 2 3 4 4 4 4 3 3 3 5 5 8 8 8 8 8 7 6 5 4 5 5 5 4 4 3 3 3 3 3 4 5 4 4 4
5 4 4 3 2 1 1 0 1 2 3 4 4 4 4 4 5 5 5 7 7 8 8 8 7 6 5 5 5 5 5 5 4 3 4 5 4 4 3 4 4 5 5
5 5 4 3 2 2 1 0 0 2 3 3 3 4 4 4 4 5 5 6 6 7 8 8 8 6 5 6 6 6 5 5 6 5 4 5 5 6 6 6 6 5 5
5 4 3 2 2 1 1 0 0 1 2 3 3 4 5 5 5 6 6 6 5 6 8 8 8 7 6 6 6 6 6 6 6 6 5 5 5 5 6 7 7 7 6
5 4 3 3 2 2 1 1 1 2 2 3 3 4 5 5 5 6 6 6 6 6 7 8 8 7 7 8 7 7 7 7 7 7 6 6 6 6 7 7 7 8 7
4 4 4 3 3 2 2 1 1 2 3 3 4 4 5 5 4 6 6 6 6 6 8 8 8 9 9 8 8 7 7 7 7 8 8 6 6 6 7 7 7 7 7
3 3 3 3 2 2 2 2 2 2 3 3 4 4 5 5 6 6 6 6 6 7 8 8 8 9 9 9 8 7 8 8 7 8 8 7 6 6 7 7 8 8 8
2 2 2 2 2 1 1 2 2 2 3 4 4 4 5 6 6 6 7 7 8 8 9 8 8 9 9 9 8 8 8 8 8 7 8 8 6 6 6 6 7 8 9
2 2 2 2 2 2 1 1 2 3 3 4 5 5 6 6 7 6 7 7 7 8 8 8 8 8 9 9 8 8 9 9 9 8 9 9 9 7 6 7 7 8 8
2 2 2 2 2 2 2 2 2 3 4 4 5 6 6 6 7 7 7 8 8 8 8 9 8 8 9 9 9 9 9 9 10 10 10 10 8 9 8 7 8 8 9
2 2 2 2 3 3 2 3 3 4 4 5 5 6 6 7 7 7 8 8 8 8 8 8 9 9 9 9 9 9 10 10 10 11 11 11 10 10 9 9 9 8 8
3 3 3 3 3 3 3 3 4 4 5 5 6 6 7 7 7 8 8 8 8 9 9 9 9 9 10 9 10 10 10 11 11 11 11 11 11 11 11 9 10 9 9
4 4 5 4 4 4 4 4 4 4 5 6 6 7 7 7 7 8 8 8 8 9 9 9 9 10 9 9 10 11 11 11 12 12 11 11 12 13 12 10 10 9 8
5 5 5 5 5 5 5 5 5 5 5 6 7 6 6 7 7 8 8 9 9 9 9 9 10 10 9 12 15 14 11 11 12 12 12 12 12 13 15 16 15 13 11
6 5 5 5 5 5 5 5 5 5 6 6 6 6 6 7 8 8 9 9 9 9 9 10 10 10 12 15 16 16 12 12 11 11 11 10 10 13 12 13 15 15 16
6 5 5 5 5 5 5 5 5 5 6 6 6 6 7 8 8 8 9 9 9 9 9 10 10 11 12 15 16 17 13 11 11 11 12 12 12 11 12 11 11 12 13
5 5 5 5 4 4 4 5 5 6 6 6 7 7 7 8 8 9 9 9 9 9 9 10 10 11 12 15 16 15 10 10 11 11 11 12 12 14 15 12 12 12 11
4 4 4 4 4 4 4 5 5 6 7 7 8 8 8 8 8 9 9 8 8 9 9 10 10 11 11 14 15 15 9 10 10 10 11 13 13 14 15 11 11 12 11
4 4 4 4 4 4 4 5 6 6 7 7 8 8 8 8 9 9 8 8 8 9 9 10 9 10 11 13 14 15 9 9 10 9 9 9 13 14 14 12 10 11 10
4 4 4 5 4 3 4 5 6 7 6 7 7 8 8 8 7 8 8 7 7 8 8 8 9 8 9 11 12 15 14 13 10 10 9 9 13 13 13 11 10 11 10
4 4 4 5 4 4 4 6 6 6 6 7 7 8 8 7 7 7 7 7 6 6 7 7 8 8 8 9 13 14 15 15 10 9 12 13 13 12 9 9 9 7 6
4 4 4 5 5 5 5 6 6 5 6 7 7 7 7 7 7 6 6 6 6 6 7 7 8 8 8 8 8 9 9 11 10 9 10 11 10 8 7 6 5 4 5
4 4 4 5 6 6 6 6 5 5 6 6 6 6 6 6 6 6 6 7 6 7 8 7 7 8 8 9 13 10 8 8 8 8 6 6 5 4 4 4 4 4 4
5 5 5 6 6 6 6 6 5 5 5 5 6 5 5 5 5 6 6 8 9 11 11 11 11 9 11 14 14 13 13 12 12 8 6 5 5 4 4 4 4 4 5
Wind_Direction
187 165 158 144 110 61 37 24 19 16 14 10 360 357 2 1 10 13 9 4 1 356 352 345 336 334 327 321 318 313 311 313 314 300 291 277 260 257 255 258 258 260 268
183 172 168 167 168 153 40 19 12 8 11 7 357 345 341 348 356 1 3 3 358 354 349 346 338 331 324 318 319 312 305 306 312 297 287 275 260 244 253 259 258 261 274
195 191 190 188 184 184 236 358 2 0 5 5 5 0 351 344 346 351 354 356 353 351 348 342 336 331 326 313 315 308 303 294 292 280 278 269 258 286 249 250 251 259 269
198 197 198 195 194 201 204 227 2 3 8 9 5 360 347 340 334 334 336 340 345 348 345 340 335 327 323 316 311 307 298 289 281 283 274 279 285 267 257 246 254 267 270
198 199 199 198 197 199 196 201 15 360 6 8 360 344 334 329 328 330 330 336 341 344 343 338 332 327 322 317 312 303 299 290 281 278 280 278 277 269 259 263 264 268 268
196 198 196 189 190 185 186 253 297 339 351 351 344 339 332 326 326 330 330 331 332 334 337 334 330 323 318 314 308 302 295 288 283 279 269 268 267 267 268 268 269 272 275
195 197 201 203 201 199 214 241 274 314 328 331 328 323 325 319 317 320 322 324 322 323 327 328 323 320 315 311 306 297 290 286 283 279 276 271 268 268 269 270 271 274 278
203 208 210 216 217 214 227 244 274 303 317 320 324 321 320 318 313 315 314 312 311 312 316 316 315 314 313 308 304 296 290 285 282 279 277 275 274 270 263 265 271 271 270
212 220 220 224 227 224 242 259 274 298 311 316 321 320 319 320 313 312 311 309 312 313 312 312 311 311 312 308 302 293 292 287 281 279 276 272 272 272 271 264 262 262 267
216 226 231 238 239 252 271 280 272 285 297 307 313 313 313 315 310 306 307 309 311 312 310 307 307 308 309 308 302 295 293 290 284 280 276 273 272 269 269 269 266 261 261
227 237 245 253 254 258 266 278 281 287 294 302 306 309 309 312 307 303 305 308 308 308 307 305 303 304 303 303 297 294 294 290 288 283 279 277 276 272 269 267 266 262 256
246 243 245 245 250 254 273 288 292 286 289 297 301 304 306 307 304 303 305 306 306 306 305 304 301 301 301 302 298 293 291 288 287 286 282 277 275 270 269 266 265 265 262
261 260 256 250 253 262 274 286 294 300 299 297 297 299 301 303 302 302 303 303 304 304 304 303 301 300 299 298 296 290 287 285 284 282 281 278 275 272 269 266 265 266 267
266 275 278 272 269 271 276 286 295 302 304 297 293 292 295 298 298 300 300 300 301 301 302 301 300 299 297 294 293 289 286 283 281 279 277 275 272 269 267 265 262 261 263
277 282 285 281 277 278 284 290 298 301 301 297 287 286 291 293 295 298 299 300 300 300 300 299 298 297 296 291 293 291 286 284 282 279 276 273 273 272 268 263 260 257 255
282 288 286 280 276 280 287 292 297 299 299 293 284 283 288 291 293 295 297 298 298 299 299 297 297 296 294 296 298 296 290 287 283 282 281 278 274 274 273 268 265 260 256
286 285 279 273 273 277 283 288 294 297 295 292 286 282 286 289 292 295 295 296 297 298 297 296 295 295 295 299 300 300 297 290 285 283 282 280 277 276 272 270 266 262 257
289 285 279 277 279 282 286 293 294 292 292 296 297 293 290 290 293 294 294 296 297 296 296 296 296 296 296 300 302 304 300 291 285 282 279 278 278 275 273 271 266 262 257
287 284 279 278 281 284 292 291 288 291 293 297 300 300 292 290 292 292 293 294 295 293 295 296 296 296 299 302 303 305 298 293 290 285 281 278 277 277 274 270 266 265 262
293 289 288 288 286 291 289 283 286 292 295 298 298 297 295 292 291 289 289 290 290 291 295 295 295 295 296 301 305 306 299 295 293 289 285 281 279 277 273 267 263 262 263
297 291 287 283 285 290 285 283 288 290 295 298 297 297 296 293 290 290 288 288 289 292 293 293 293 293 296 302 305 307 303 296 294 292 291 287 288 285 279 273 266 264 268
307 299 291 290 293 290 285 286 289 298 302 300 298 299 298 296 294 293 293 290 289 291 293 296 299 299 300 302 304 307 304 302 294 291 291 290 292 291 286 280 276 274 273
304 300 289 290 296 292 285 286 295 303 303 302 301 301 300 297 295 293 293 295 292 291 295 298 301 305 306 306 308 308 306 305 300 293 295 296 295 294 288 281 281 276 267
302 302 296 295 301 302 296 293 299 301 301 300 301 301 302 302 301 296 293 294 296 296 295 299 303 306 308 309 313 312 309 308 304 301 301 301 296 291 287 284 279 272 263
298 298 294 295 300 305 303 304 303 302 300 299 298 301 302 304 304 300 295 293 290 295 305 306 305 306 306 313 320 320 315 314 309 308 302 301 298 291 291 288 282 278 274
293 295 294 296 300 304 303 306 307 302 299 300 302 302 304 305 306 305 306 301 301 305 307 308 310 309 310 317 321 323 324 326 326 318 305 302 301 295 292 290 287 283 278
Height
1538 1537 1537 1538 1538 1538 1537 1537 1536 1535 1535 1533 1532 1531 1530 1529 1528 1526 1525 1523 1522 1521 1520 1518 1517 1516 1515 1514 1513 1512 1511 1511 1510 1510 1509 1509 1509 1509 1509 1510 1510 1511 1511
1535 1535 1536 1536 1536 1536 1536 1535 1534 1534 1533 1532 1530 1529 1528 1527 1525 1524 1523 1521 1520 1518 1517 1516 1514 1513 1512 1511 1510 1509 1508 1507 1507 1507 1507 1506 1507 1505 1505 1506 1506 1507 1507
1532 1533 1533 1534 1534 1533 1533 1533 1533 1532 1531 1530 1529 1527 1526 1524 1523 1522 1520 1519 1517 1515 1514 1513 1511 1510 1508 1508 1507 1506 1505 1504 1504 1505 1506 1505 1503 1502 1501 1502 1502 1503 1503
1530 1531 1531 1531 1531 1531 1531 1531 1531 1530 1529 1528 1526 1525 1523 1522 1520 1519 1517 1516 1514 1512 1511 1510 1508 1507 1505 1504 1504 1503 1502 1501 1501 1501 1502 1502 1501 1500 1497 1498 1498 1498 1499
1528 1528 1529 1529 1530 1530 1529 1529 1529 1528 1527 1526 1524 1523 1521 1520 1518 1516 1515 1513 1511 1510 1508 1507 1505 1504 1502 1501 1500 1499 1499 1498 1497 1497 1497 1497 1496 1496 1495 1493 1494 1494 1494
1526 1527 1527 1528 1528 1528 1528 1527 1527 1526 1525 1523 1522 1520 1519 1517 1515 1513 1511 1510 1508 1507 1505 1504 1502 1500 1499 1497 1496 1495 1494 1494 1493 1492 1492 1492 1492 1492 1492 1490 1489 1489 1489
1524 1524 1525 1525 1525 1526 1525 1525 1524 1523 1522 1521 1519 1518 1516 1514 1512 1510 1508 1506 1505 1503 1502 1500 1498 1497 1495 1493 1492 1491 1490 1490 1489 1488 1487 1488 1488 1488 1488 1487 1485 1485 1484
1522 1523 1523 1523 1523 1523 1523 1522 1521 1521 1519 1518 1517 1515 1513 1511 1509 1507 1505 1503 1501 1500 1498 1496 1494 1493 1491 1489 1488 1487 1486 1485 1484 1483 1483 1482 1482 1483 1483 1482 1482 1480 1479
1520 1520 1520 1520 1520 1520 1520 1519 1519 1517 1516 1515 1514 1512 1510 1508 1506 1504 1502 1500 1498 1496 1494 1492 1490 1489 1487 1485 1484 1482 1481 1480 1479 1479 1478 1478 1477 1477 1477 1477 1477 1478 1475
1518 1518 1518 1518 1518 1517 1517 1516 1516 1514 1513 1512 1510 1508 1507 1505 1503 1501 1499 1496 1494 1492 1490 1488 1486 1484 1483 1481 1480 1478 1477 1475 1474 1474 1473 1472 1472 1471 1471 1471 1471 1471 1471
1516 1516 1515 1515 1515 1514 1514 1513 1512 1511 1510 1508 1507 1505 1503 1501 1499 1497 1495 1492 1490 1488 1486 1484 1482 1480 1478 1477 1475 1474 1472 1471 1469 1469 1468 1467 1466 1465 1465 1465 1465 1465 1465
1513 1513 1512 1512 1511 1511 1510 1509 1508 1507 1506 1504 1503 1501 1499 1497 1495 1493 1491 1489 1486 1484 1482 1480 1478 1476 1474 1472 1471 1469 1467 1466 1464 1463 1462 1461 1461 1460 1460 1460 1459 1459 1459
1511 1510 1509 1509 1508 1507 1506 1505 1504 1503 1502 1500 1499 1497 1495 1493 1491 1489 1487 1485 1482 1480 1478 1475 1473 1471 1470 1468 1466 1464 1462 1461 1459 1458 1457 1456 1455 1454 1454 1454 1453 1453 1453
1508 1507 1506 1505 1504 1503 1502 1501 1500 1499 1498 1496 1494 1492 1491 1489 1487 1485 1483 1480 1478 1475 1473 1471 1469 1467 1465 1463 1461 1459 1457 1456 1454 1453 1452 1450 1450 1449 1448 1448 1447 1447 1447
1505 1504 1503 1502 1500 1499 1498 1497 1495 1494 1493 1491 1490 1488 1486 1485 1482 1480 1478 1476 1473 1471 1468 1466 1464 1462 1460 1458 1456 1454 1452 1450 1448 1447 1446 1445 1444 1443 1442 1442 1441 1441 1441
1502 1501 1499 1498 1496 1495 1494 1492 1491 1490 1489 1487 1485 1484 1482 1480 1478 1476 1473 1471 1469 1466 1464 1461 1459 1457 1455 1453 1451 1450 1447 1445 1443 1441 1439 1438 1437 1436 1435 1435 1435 1435 1435
1498 1497 1495 1494 1493 1492 1490 1489 1487 1486 1484 1482 1481 1479 1477 1475 1473 1471 1468 1466 1464 1461 1459 1456 1454 1452 1450 1448 1446 1444 1442 1439 1437 1435 1433 1432 1430 1430 1429 1428 1427 1427 1427
1495 1493 1492 1490 1489 1488 1486 1485 1483 1482 1480 1478 1476 1475 1473 1470 1468 1466 1464 1461 1459 1456 1454 1451 1449 1446 1444 1442 1441 1439 1436 1434 1431 1429 1427 1426 1424 1423 1422 1421 1420 1420 1420
1492 1490 1489 1487 1485 1484 1482 1481 1480 1478 1476 1474 1472 1470 1468 1466 1464 1461 1459 1457 1454 1452 1449 1447 1444 1441 1439 1437 1435 1433 1431 1428 1425 1423 1421 1420 1418 1416 1416 1415 1414 1413 1413
1489 1487 1485 1483 1482 1480 1479 1477 1476 1474 1472 1469 1467 1465 1463 1461 1459 1457 1455 1452 1450 1447 1445 1442 1440 1437 1434 1432 1430 1428 1425 1422 1420 1417 1415 1413 1412 1410 1409 1409 1408 1407 1406
1486 1484 1482 1481 1479 1477 1475 1473 1472 1470 1468 1466 1463 1461 1459 1457 1455 1452 1450 1448 1445 1443 1440 1437 1435 1432 1430 1427 1425 1423 1421 1418 1414 1411 1409 1407 1405 1404 1403 1402 1401 1400 1401
1482 1481 1479 1477 1476 1474 1472 1470 1468 1466 1464 1462 1459 1457 1455 1453 1450 1448 1446 1443 1441 1438 1436 1433 1430 1428 1425 1423 1420 1418 1416 1413 1410 1406 1403 1401 1399 1397 1396 1395 1395 1395 1395
1479 1477 1476 1474 1472 1470 1468 1466 1464 1462 1460 1458 1455 1453 1451 1449 1447 1444 1442 1439 1437 1435 1432 1429 1426 1423 1421 1418 1416 1413 1410 1407 1404 1401 1398 1395 1393 1392 1390 1389 1389 1388 1388
1476 1474 1472 1470 1468 1467 1465 1462 1460 1458 1456 1454 1451 1449 1447 1445 1443 1441 1439 1436 1434 1431 1429 1426 1423 1420 1417 1415 1412 1408 1405 1402 1399 1396 1393 1390 1388 1386 1385 1384 1383 1383 1383
1472 1471 1469 1467 1465 1463 1461 1459 1457 1454 1452 1450 1448 1446 1444 1442 1439 1437 1435 1433 1431 1429 1425 1422 1420 1417 1414 1411 1409 1405 1402 1398 1395 1392 1388 1386 1383 1381 1380 1379 1378 1378 1377
1469 1467 1465 1463 1461 1459 1457 1455 1453 1451 1448 1446 1444 1443 1440 1438 1436 1433 1431 1429 1427 1424 1422 1420 1417 1414 1411 1408 1405 1401 1398 1394 1391 1388 1385 1382 1380 1378 1376 1375 1374 1373 1372